Location: Buckeye Ditch
(40.9104°N, 122.9517°W)
Time: 19:37:00
(UTC+00:00)

BlueWalker 3 - Pass Details

Date: 23 June 2024
Orbit: 480 x 491 km, 53.2° (Epoch: 24 July)

Event Time Altitude Azimuth Distance (km) Brightness Sun altitude
Rises 10:28:11 0° 307° (NW) 2,538 5.6 -18.5°
Reaches altitude 10° 10:30:21 10° 305° (NW) 1,656 4.6 -18.3°
Maximum altitude 10:34:04 71° 222° (SW) 509 1.7 -17.9°
Drops below altitude 10° 10:37:46 10° 138° (SE) 1,650 4.4 -17.5°
Sets 10:39:56 0° 136° (SE) 2,527 5.4 -17.3°
